Regional Weather Roundup
Issued by NWS

Home | Current Version | Previous Version | Text Only | Print | Product List | Glossary Off
Versions: 1 2 3 4 5 6 7 8 9 10 11 12 13 14 15 16 17 18 19 20 21 22 23 24 25 26 27 28 29 30 31 32 33 34 35 36 37 38 39 40 41 42 43 44 45 46 47 48 49 50

000
ASUS43 KBIS 291702
RWRND

NORTH DAKOTA REGIONAL WEATHER ROUNDUP
NATIONAL WEATHER SERVICE BISMARCK ND
1200 PM CDT WED JUL 29 2015

NOTE: "FAIR" INDICATES FEW OR NO CLOUDS BELOW 12,000 FEET WITH NO
SIGNIFICANT WEATHER AND/OR OBSTRUCTIONS TO VISIBILITY.


NDZ001>003-009>011-017-291800-
NORTHWEST NORTH DAKOTA

CITY           SKY/WX    TMP DP  RH WIND       PRES   REMARKS
WILLISTON      MOSUNNY   76  51  41 W24G33    30.05S
MINOT          MOSUNNY   75  53  46 W22G30    29.95R
MINOT AFB      MOSUNNY   76  57  52 W21G31    29.94R
$$

NDZ018>021-031>035-040>046-291800-
SOUTHWEST NORTH DAKOTA

CITY           SKY/WX    TMP DP  RH WIND       PRES   REMARKS
BISMARCK       SUNNY     78  50  37 W18G31    30.03R
DICKINSON      PTSUNNY   72  46  39 W25G33    30.11R
GARRISON         N/A     71  54  54 W21G32    30.00S
HETTINGER ARPT MOSUNNY   74  43  32 W22       30.16S
$$

NDZ004>008-012>016-024-026-027-054-291800-
NORTHEAST NORTH DAKOTA

CITY           SKY/WX    TMP DP  RH WIND       PRES   REMARKS
GRAND FORKS    MOSUNNY   77  54  44 NW26G41   29.76R
GRND FRKS AFB  SUNNY     76  55  48 NW22G39   29.79R
DEVILS LAKE    SUNNY     73  54  49 NW25G38   29.84R
$$

NDZ022-023-025-028>030-036>039-047>053-291800-
SOUTHEAST NORTH DAKOTA

CITY           SKY/WX    TMP DP  RH WIND       PRES   REMARKS
FARGO          SUNNY     78  56  46 W29G40    29.86R
JAMESTOWN      SUNNY     76  52  43 W24G35    29.94R
$$



USA.gov is the U.S. government's official web portal to all federal, state and local government web resources and services.